TimeEDT,TemperatureF,Dew PointF,Humidity,Sea Level PressureIn,VisibilityMPH,Wind Direction,Wind SpeedMPH,Gust SpeedMPH,PrecipitationIn,Events,Conditions,WindDirDegrees,DateUTC
12:53 AM,57.0,46.9,69,29.85,10.0,NNE,6.9,-,N/A,,Clear,20,2012-10-02 04:53:00
1:53 AM,57.0,46.9,69,29.84,10.0,NNE,3.5,-,N/A,,Clear,20,2012-10-02 05:53:00
3:53 AM,55.0,46.9,74,29.84,10.0,NNE,3.5,-,N/A,,Clear,20,2012-10-02 07:53:00
4:53 AM,53.1,46.0,77,29.84,10.0,Calm,Calm,-,N/A,,Clear,0,2012-10-02 08:53:00
5:53 AM,54.0,46.0,75,29.86,10.0,NNE,3.5,-,N/A,,Clear,20,2012-10-02 09:53:00
6:53 AM,51.1,44.1,77,29.87,10.0,Calm,Calm,-,N/A,,Clear,0,2012-10-02 10:53:00
7:53 AM,48.9,43.0,80,29.83,10.0,Calm,Calm,-,N/A,,Clear,0,2012-10-02 11:53:00
9:53 AM,59.0,46.9,64,29.90,10.0,East,6.9,-,N/A,,Clear,80,2012-10-02 13:53:00
10:53 AM,64.0,46.9,54,29.90,10.0,Variable,5.8,-,N/A,,Clear,0,2012-10-02 14:53:00
11:53 AM,68.0,45.0,43,29.89,10.0,ENE,6.9,-,N/A,,Clear,60,2012-10-02 15:53:00
12:53 PM,70.0,45.0,41,29.88,10.0,ENE,8.1,-,N/A,,Clear,60,2012-10-02 16:53:00
1:53 PM,71.1,44.1,38,29.88,10.0,East,8.1,-,N/A,,Clear,90,2012-10-02 17:53:00
2:53 PM,73.0,43.0,34,29.86,10.0,NE,4.6,-,N/A,,Clear,40,2012-10-02 18:53:00
3:53 PM,73.9,43.0,33,29.84,10.0,East,5.8,-,N/A,,Clear,100,2012-10-02 19:53:00
4:53 PM,73.0,42.1,33,29.85,10.0,ENE,5.8,-,N/A,,Clear,70,2012-10-02 20:53:00
5:53 PM,71.1,45.0,39,29.86,10.0,East,6.9,-,N/A,,Overcast,90,2012-10-02 21:53:00
6:53 PM,68.0,53.1,59,29.86,10.0,Calm,Calm,-,N/A,,Overcast,0,2012-10-02 22:53:00
8:53 PM,64.0,46.0,52,29.90,10.0,Calm,Calm,-,N/A,,Partly Cloudy,0,2012-10-03 00:53:00
9:53 PM,63.0,46.0,54,29.91,10.0,Calm,Calm,-,N/A,,Overcast,0,2012-10-03 01:53:00
10:53 PM,64.0,46.0,52,29.92,10.0,Calm,Calm,-,N/A,,Overcast,0,2012-10-03 02:53:00
11:53 PM,64.0,46.9,54,29.92,10.0,ENE,3.5,-,N/A,,Overcast,60,2012-10-03 03:53:00